Location: *
(2.5500°S, 65.9667°W)
Time: 13:28:50
(UTC+00:00)

Cosmos 2173 Rocket - Pass Details

Date: 02 June 2022
Orbit: 945 x 1000 km, 83.0° (Epoch: 28 June)

Event Time Altitude Azimuth Distance (km) Brightness Sun altitude
Rises 09:19:20 0° 16° (NNE) 3,658 7.6 -15.4°
Reaches altitude 10° 09:22:05 10° 26° (NNE) 2,722 7.0 -14.8°
Maximum altitude 09:27:35 33° 88° (E) 1,595 5.8 -13.5°
Drops below altitude 10° 09:33:10 10° 150° (SSE) 2,761 6.5 -12.2°
Sets 09:35:57 0° 159° (SSE) 3,718 7.0 -11.6°
